Location: Newark
(48.5667°N, 3.3000°E)
Time: 12:36:32
(UTC+00:00)

N. Korean satellite - Pass Details

Date: 26 October 2019
Orbit: 456 x 506 km, 97.2° (Epoch: 20 November)

Event Time Altitude Azimuth Distance (km) Brightness Sun altitude
Rises 05:21:07 0° 19° (NNE) 2,579 10.4 -10.8°
Reaches altitude 10° 05:23:17 10° 26° (NNE) 1,700 9.6 -10.5°
Maximum altitude 05:26:46 41° 98° (E) 740 8.2 -9.9°
Drops below altitude 10° 05:30:15 10° 170° (S) 1,706 9.6 -9.3°
Sets 05:32:25 0° 177° (S) 2,590 10.4 -9.0°
